Home > Time Zones > World Clock > Weather > Chad > Sarh > Past weeks

Flag for Chad Weather past 2 weeks in Sarh, Chad

Now
88 °F

Clear.


Feels Like: 85 °F
Forecast: 78 / 102 °F
Wind: No wind

Location: Sarh Airport

Current Time: Mar 2, 2015 at 8:53:11 PM

Latest Report: Mar 2, 2015 at 8:00 PM


Visibility: 4 mi

Pressure: 29.80 "Hg

Humidity: 29%

Dew point: 52 °F

Location of SarhLocation

Historic Weather in Sarh — Graph

°F

Sarh temperature yesterday

Maximum temperature yesterday: 100 °F (at 2:00 PM)
Minimum temperature yesterday: 73 °F (at 6:00 AM)
Average temperature yesterday: 87 °F

Past Weeks' High & Low Weather Summary

 TemperatureHumidityPressure
High106 °F (Feb 23, 2:00 PM)69% (Feb 19, 2:00 AM)29.95 "Hg (Feb 19, 2:00 AM)
Low70 °F (Feb 16, 6:00 AM)6% (Feb 28, 12:00 PM)29.68 "Hg (Feb 19, 5:00 PM)
Average88 °F24%29.82 "Hg
* Reported Feb 15 7:00 PM — Mar 2 7:00 PM, Sarh, Weather by CustomWeather, © 2015

Note: Actual official high and low records may vary slightly from our data, if they occured in-between our weather recording intervals... More about our weather records

Advertising

Sarh weather history for previous 24 hours

 ConditionsComfort  
Time TempWeatherWind HumidityBarometerVisibility
7:00 PM
Mon, Mar 2
90 °FClear.No wind27%29.77 "Hg4 mi
6:00 PM97 °FClear.No wind20%29.74 "Hg4 mi
5:00 PM100 °FClear.No wind13%29.77 "Hg4 mi
4:00 PM102 °FClear.5 mph9%29.74 "Hg4 mi
3:00 PM102 °FClear.7 mph11%29.74 "Hg4 mi
2:00 PM102 °FClear.9 mph9%29.77 "Hg4 mi
1:00 PM100 °FClear.5 mph10%29.83 "Hg4 mi
12:00 PM97 °FClear.12 mph12%29.86 "Hg4 mi
11:00 AM95 °FClear.9 mph11%29.86 "Hg4 mi
10:00 AM91 °FClear.9 mph11%29.89 "Hg4 mi
9:00 AM86 °FClear.9 mph11%29.86 "Hg4 mi
8:00 AM81 °FClear.9 mph21%29.83 "Hg4 mi
7:00 AM77 °FClear.5 mph21%29.86 "Hg4 mi
6:00 AM77 °FClear.No wind17%29.80 "Hg4 mi
5:00 AM77 °FClear.No wind21%29.80 "Hg4 mi
4:00 AM75 °FClear.No wind27%29.80 "Hg4 mi
3:00 AM75 °FClear.No wind29%29.80 "Hg4 mi
2:00 AM75 °FClear.No wind39%29.80 "Hg4 mi
12:00 AM79 °FClear.No wind28%29.80 "Hg4 mi
11:00 PM
Sun, Mar 1
82 °FClear.No wind25%29.80 "Hg4 mi
10:00 PM82 °FHaze.No wind23%29.80 "Hg3 mi
9:00 PM84 °FHaze.No wind25%29.77 "Hg3 mi
8:00 PM90 °FHaze.No wind20%29.77 "Hg2 mi
Weather by CustomWeather, © 2015

See weather overviewHow to use our weather pages